TimeCDT,TemperatureF,Dew PointF,Humidity,Sea Level PressureIn,VisibilityMPH,Wind Direction,Wind SpeedMPH,Gust SpeedMPH,PrecipitationIn,Events,Conditions,WindDirDegrees,DateUTC
12:53 AM,64.0,55.0,73,29.99,10.0,South,4.6,-,N/A,,Clear,180,2013-05-09 05:53:00
1:53 AM,63.0,55.0,75,29.97,10.0,South,5.8,-,N/A,,Partly Cloudy,180,2013-05-09 06:53:00
2:53 AM,64.9,55.0,70,29.97,10.0,South,5.8,-,N/A,,Mostly Cloudy,180,2013-05-09 07:53:00
3:53 AM,64.0,55.0,73,29.96,10.0,South,5.8,-,N/A,,Partly Cloudy,180,2013-05-09 08:53:00
4:53 AM,63.0,55.0,75,29.95,10.0,Calm,Calm,-,N/A,,Clear,0,2013-05-09 09:53:00
5:53 AM,61.0,55.0,81,29.95,10.0,SSE,3.5,-,N/A,,Mostly Cloudy,160,2013-05-09 10:53:00
6:25 AM,62.6,55.4,77,29.98,10.0,South,4.6,-,N/A,Thunderstorm,Overcast,180,2013-05-09 11:25:00
6:53 AM,62.1,55.9,80,29.96,7.0,Calm,Calm,-,0.01,Rain-Thunderstorm,Light Thunderstorms and Rain,0,2013-05-09 11:53:00
7:15 AM,60.8,57.2,88,29.98,10.0,Calm,Calm,-,0.00,,Overcast,0,2013-05-09 12:15:00
7:53 AM,63.0,57.0,81,29.96,10.0,South,3.5,-,0.00,,Overcast,180,2013-05-09 12:53:00
8:53 AM,64.9,59.0,81,29.98,10.0,SSW,9.2,18.4,N/A,,Overcast,200,2013-05-09 13:53:00
9:04 AM,64.4,59.0,83,30.02,5.0,SW,15.0,25.3,0.01,Rain-Thunderstorm,Light Rain,230,2013-05-09 14:04:00
9:13 AM,62.6,60.8,94,30.02,2.0,SW,13.8,25.3,0.04,Rain,Rain,220,2013-05-09 14:13:00
9:22 AM,62.6,60.8,94,30.02,3.0,SW,9.2,28.8,0.07,Rain,Rain,220,2013-05-09 14:22:00
9:53 AM,63.0,60.1,90,29.97,10.0,South,9.2,-,0.10,,Mostly Cloudy,190,2013-05-09 14:53:00
10:53 AM,66.0,61.0,84,29.95,10.0,South,10.4,-,N/A,,Scattered Clouds,180,2013-05-09 15:53:00
1:53 PM,75.0,53.1,46,29.92,10.0,WSW,10.4,20.7,N/A,,Mostly Cloudy,240,2013-05-09 18:53:00
2:53 PM,78.1,55.0,45,29.92,10.0,SW,10.4,18.4,N/A,,Scattered Clouds,230,2013-05-09 19:53:00
3:53 PM,78.1,55.0,45,29.91,10.0,WNW,10.4,17.3,N/A,,Partly Cloudy,290,2013-05-09 20:53:00
4:53 PM,78.1,55.0,45,29.91,10.0,West,8.1,-,N/A,,Overcast,260,2013-05-09 21:53:00
5:53 PM,75.9,55.9,50,29.89,10.0,West,4.6,-,N/A,,Partly Cloudy,280,2013-05-09 22:53:00
6:53 PM,72.0,59.0,64,29.88,10.0,Calm,Calm,-,N/A,,Partly Cloudy,0,2013-05-09 23:53:00
7:53 PM,72.0,57.9,61,29.90,10.0,SW,4.6,-,N/A,,Mostly Cloudy,230,2013-05-10 00:53:00
9:51 PM,69.8,57.2,64,29.95,10.0,West,12.7,-,N/A,,Mostly Cloudy,270,2013-05-10 02:51:00
9:53 PM,68.0,57.9,70,29.93,10.0,West,12.7,20.7,N/A,,Mostly Cloudy,270,2013-05-10 02:53:00
10:53 PM,64.9,57.9,78,29.94,10.0,West,8.1,-,N/A,,Partly Cloudy,260,2013-05-10 03:53:00
11:53 PM,63.0,55.9,78,29.94,10.0,WSW,4.6,-,N/A,,Mostly Cloudy,250,2013-05-10 04:53:00